Weather History for Columbia, SC

Change the Weather History Date:

Saturday, September 28, 2013

  Actual Average Record
Temperature  
Mean Temperature 68 °F 70 °F  
Max Temperature 78 °F 82 °F 96 °F (1986)
Min Temperature 58 °F 59 °F 41 °F (1985)
Degree Days  
Heating Degree Days 0 1  
Month to date heating degree days 0 5  
Since 1 July heating degree days 0 5  
Cooling Degree Days 3 6  
Month to date cooling degree days 341 287  
Year to date cooling degree days 2034 2055  
Growing Degree Days 18 (Base 50)    
Moisture  
Dew Point 53 °F    
Average Humidity 63    
Maximum Humidity 86    
Minimum Humidity 40    
Precipitation  
Precipitation 0.00 in 0.11 in 2.77 in (1980)
Month to date precipitation 2.04 3.31  
Year to date precipitation 45.55 35.23  
Sea Level Pressure  
Sea Level Pressure 30.16 in    
Wind  
Wind Speed 8 mph (NNE)    
Max Wind Speed 18 mph    
Max Gust Speed 24 mph    
Visibility 10 miles    
Events      
T = Trace of Precipitation, MM = Missing Value Source: NWS Daily Summary

Daily Weather History Graph

Daily Weather History Graph

Search for Another Location

Airport:

Trip Planner

Search our weather history database for the weather conditions in past years. The results will help you decide how hot, cold, wet, or windy it might be!

Date:

Astronomy

Sep. 28, 2013 Rise Set
Actual Time 7:16 AM EDT 7:12 PM EDT
Civil Twilight 6:52 AM EDT 7:37 PM EDT
Nautical Twilight 6:23 AM EDT 8:06 PM EDT
Astronomical Twilight 5:53 AM EDT 8:35 PM EDT
Moon 1:17 AM EDT (9/28) 3:17 PM EDT (9/28)
Length of Visible Light 12h 45m
Length of Day
11h 55m
Last Quarter, 36% of the Moon is Illuminated
Sep 28
Last Quarter
Oct 4
New
Oct 11
First Quarter
Oct 18
Full
Oct 26
Last Quarter

Hourly Weather History & Observations

Time (EDT) Temp. Dew Point Humidity Pressure Visibility Wind Dir Wind Speed Gust Speed Precip Events Conditions
12:56 AM 66.0 °F 55.0 °F 68% 30.15 in 10.0 mi NE 6.9 mph - N/A   Clear
1:56 AM 64.9 °F 55.0 °F 70% 30.14 in 10.0 mi NE 6.9 mph - N/A   Clear
2:56 AM 64.0 °F 54.0 °F 70% 30.14 in 10.0 mi NE 5.8 mph - N/A   Clear
3:56 AM 61.0 °F 55.0 °F 81% 30.14 in 10.0 mi NNE 6.9 mph - N/A   Clear
4:56 AM 60.1 °F 55.0 °F 83% 30.14 in 10.0 mi North 5.8 mph - N/A   Clear
5:56 AM 59.0 °F 54.0 °F 83% 30.15 in 10.0 mi NNE 4.6 mph - N/A   Clear
6:56 AM 57.9 °F 54.0 °F 87% 30.17 in 10.0 mi North 4.6 mph - N/A   Clear
7:56 AM 59.0 °F 54.0 °F 83% 30.19 in 10.0 mi NNE 6.9 mph - N/A   Clear
8:56 AM 63.0 °F 54.0 °F 72% 30.20 in 10.0 mi NNE 6.9 mph - N/A   Clear
9:56 AM 66.9 °F 51.1 °F 57% 30.21 in 10.0 mi NE 12.7 mph 18.4 mph N/A   Clear
10:56 AM 70.0 °F 50.0 °F 49% 30.22 in 10.0 mi NE 13.8 mph 23.0 mph N/A   Clear
11:56 AM 72.0 °F 52.0 °F 49% 30.21 in 10.0 mi NNE 9.2 mph 19.6 mph N/A   Clear
12:56 PM 73.9 °F 52.0 °F 46% 30.19 in 10.0 mi NNE 11.5 mph - N/A   Partly Cloudy
1:56 PM 75.0 °F 53.1 °F 46% 30.17 in 10.0 mi NE 9.2 mph 19.6 mph N/A   Scattered Clouds
2:56 PM 75.9 °F 52.0 °F 43% 30.14 in 10.0 mi NNE 9.2 mph 17.3 mph N/A   Scattered Clouds
3:56 PM 77.0 °F 52.0 °F 42% 30.12 in 10.0 mi ENE 5.8 mph - N/A   Scattered Clouds
4:56 PM 78.1 °F 53.1 °F 42% 30.12 in 10.0 mi NE 5.8 mph - N/A   Mostly Cloudy
5:56 PM 77.0 °F 53.1 °F 43% 30.12 in 10.0 mi North 9.2 mph - N/A   Mostly Cloudy
6:56 PM 73.9 °F 54.0 °F 50% 30.13 in 10.0 mi NNE 6.9 mph - N/A   Mostly Cloudy
7:56 PM 72.0 °F 54.0 °F 53% 30.12 in 10.0 mi NNE 5.8 mph - N/A   Scattered Clouds
8:56 PM 71.1 °F 53.1 °F 53% 30.14 in 10.0 mi NE 8.1 mph - N/A   Scattered Clouds
9:56 PM 69.1 °F 53.1 °F 57% 30.14 in 10.0 mi NNE 5.8 mph - N/A   Partly Cloudy
10:56 PM 66.9 °F 52.0 °F 59% 30.15 in 10.0 mi NNE 6.9 mph - N/A   Mostly Cloudy
11:56 PM 66.0 °F 53.1 °F 63% 30.14 in 10.0 mi NNE 5.8 mph - N/A   Overcast